星链-31989 (STARLINK-31989 )

导读

STARLINK-31989是美国太空探索技术公司SpaceX星链互联网星座的一员,于北京时间2024年6月5日发射入轨。它属于星链低轨通信卫星群组,运行在近地轨道,旨在为全球范围提供高速、低延迟的宽带互联网服务,进一步扩充星链星座的服务覆盖能力与网络容量。

Basic Information
目录编号:
59959
目录名称:
STARLINK-31989
国际标识:
2024-107Q
轨道中心:
EARTH
卫星名称:
星链-31989
卫星全名:
星链-31989 (STARLINK-31989 )
卫星状态:
在轨 (已飞行821 天)
发射日期:
2024-06-05 UTC
国别 :
美国 (US)
星等 :
--
Orbit Information
数据来源 国际轨道数据
星历时间: 2026-09-04T12:28:39+0800
9小时前
查看轨道信息
半长轴: 6840.877km
偏心率: 0.0001253
轨道倾角: 53.159°
近地点辐角 75.401°
升交点赤经 313.704°
平近点角 284.713°
近地点: 461.882km
远地点: 463.598km
周期: 93.849分钟
每日圈数: 15.343878
Detailed Information
固有亮度:
5
最大亮度:
1.5
卫星平台:
Starlink v2.0 mini
覆盖范围:
全球
运营商:
太空探索技术公司
运营商所在国:
美国
制造商(研发单位):
太空探索技术公司
制造商所在国:
美国
使用方式:
暂无
Satellite Introduction
星链(Starlink)计划是由太空探索技术公司(SpaceX)提出的一个巨型低轨卫星互联网星座项目,计划在2019年至2024年间在太空搭建由约1.2万颗卫星组成的“星链”网络,其中1584颗将部署在地球上空550千米处的近地轨道,并从2020年开始工作。该卫星仍在工作。
2D Orbit Map
3D Orbit Map
Orbit Altitude Analysis Chart
Orbit Inclination Analysis Chart
Orbit Comprehensive Analysis Chart
View Comprehensive Chart
Conjunction Data List
Event ID Objects TCA Miss Dist (km) Collision Risk Probability Collision Risk Index (CRI) Action
CDM_260905-212405-995906-946421
2026-09-05T
21:24:40+0000
0.304 km
远距离
3.616773E-4 高风险 0.86
CDM_260905-143205-995906-447521
2026-09-05T
14:32:38+0000
0.420 km
远距离
1.641241E-4 高风险 0.79
CDM_260906-003205-995906-693621
2026-09-06T
00:32:38+0000
1.132 km
极远距离
1.023294E-5 中风险 0.55
CDM_260905-225805-995906-693621
2026-09-05T
22:58:50+0000
1.168 km
极远距离
9.190123E-6 低风险 0.54
CDM_260905-195005-995906-946421
2026-09-05T
19:50:53+0000
2.013 km
极远距离
1.788662E-6 低风险 0.4
CDM_260905-225805-995906-946421
2026-09-05T
22:58:28+0000
2.273 km
极远距离
1.366754E-6 低风险 0.38
CDM_260905-182705-995906-447521
2026-09-05T
18:27:06+0000
2.280 km
极远距离
1.109188E-6 低风险 0.36
CDM_260906-121605-995906-693621
2026-09-06T
12:16:05+0000
2.641 km
极远距离
1.02194E-6 低风险 0.35
CDM_260905-212505-995906-693621
2026-09-05T
21:25:02+0000
2.867 km
极远距离
9.141359E-7 极低风险 0.34
CDM_260906-020605-995906-693621
2026-09-06T
02:06:25+0000
2.889 km
极远距离
9.056943E-7 极低风险 0.34